Location: Woodhurst
(52.3667°N, 0.0667°W)
Time: 01:14:31
(UTC+00:00)

Cosmos 1766 Rocket - Pass Details

Date: 19 May 2025
Orbit: 598 x 627 km, 82.5° (Epoch: 18 June)

Event Time Altitude Azimuth Distance (km) Brightness Sun altitude
Rises 21:52:53 0° 351° (N) 2,912 8.4 -12.8°
Reaches altitude 10° 21:55:10 10° 356° (N) 1,996 7.3 -13.0°
Maximum altitude 21:59:32 58° 76° (ENE) 723 3.8 -13.3°
Enters shadow 22:02:15 22° 149° (SSE) 1,364 4.7 -13.5°
